[TLELIST] Archives

 

[list_settings.list_name] Current TLEs

June 16th 2009 PST

HST 1 20580U 90037B 09165.32007629 +.00000282 +00000-0 +88263-5 0 04083 2 20580 028.4682 121.0194 0003302 250.7160 109.3026 15.00808819849422 ISS (ZARYA) 1 25544U 98067A 09166.53343568 .00013123 00000-0 95367-4 0 433 2 25544 051.6412 315.3883 0009034 114.6718 329.3935 15.73718609605693 CXO 1 25867U 99040B 09166.50000000 +.00000349 +00000-0 +10000-3 0 03373 2 25867 065.4342 069.2704 7524095 275.9201 359.3065 00.37808270005001 ____________________________________________________________________ These 2-Line ...Continue Reading

[list_settings.list_name] Current TLEs

June 15th 2009 PST

HST 1 20580U 90037B 09162.19458016 +.00000314 +00000-0 +11293-4 0 04078 2 20580 028.4682 141.4121 0003302 217.4985 142.5331 15.00808356848954 ISS (ZARYA) 1 25544U 98067A 09164.95737503 +.00014154 +00000-0 +10267-3 0 00332 2 25544 051.6412 323.4782 0009083 108.7818 040.3991 15.73678663605440 CXO 1 25867U 99040B 09161.20833333 +.00000164 +00000-0 +10000-3 0 03362 2 25867 065.4122 069.4210 7515718 275.9183 359.0087 00.37805990004985 ____________________________________________________________________ These 2-Line ...Continue Reading

[list_settings.list_name] Current TLEs

June 14th 2009 PST

HST 1 20580U 90037B 09162.19458016 +.00000314 +00000-0 +11293-4 0 04078 2 20580 028.4682 141.4121 0003302 217.4985 142.5331 15.00808356848954 ISS (ZARYA) 1 25544U 98067A 09165.18172454 .00014034 00000-0 10181-3 0 350 2 25544 051.6414 322.3262 0009043 109.0076 232.0267 15.73684920605471 CXO 1 25867U 99040B 09161.20833333 +.00000164 +00000-0 +10000-3 0 03362 2 25867 065.4122 069.4210 7515718 275.9183 359.0087 00.37805990004985 ____________________________________________________________________ These 2-Line ...Continue Reading

[list_settings.list_name] Current TLEs

June 13th 2009 PST

HST 1 20580U 90037B 09162.19458016 +.00000314 +00000-0 +11293-4 0 04078 2 20580 028.4682 141.4121 0003302 217.4985 142.5331 15.00808356848954 ISS (ZARYA) 1 25544U 98067A 09164.06009419 .00014624 00000-0 10602-3 0 270 2 25544 051.6410 328.0826 0009129 105.9741 356.5184 15.73654635605307 CXO 1 25867U 99040B 09161.20833333 +.00000164 +00000-0 +10000-3 0 03362 2 25867 065.4122 069.4210 7515718 275.9183 359.0087 00.37805990004985 ____________________________________________________________________ These 2-Line ...Continue Reading

[list_settings.list_name] Current TLEs

June 12th 2009 PST

HST 1 20580U 90037B 09161.06408208 +.00000312 +00000-0 +11110-4 0 04066 2 20580 028.4688 148.7877 0003500 206.1835 153.8589 15.00808062848782 ISS (ZARYA) 1 25544U 98067A 09163.21613426 .00014830 00000-0 10757-3 0 220 2 25544 051.6409 332.4134 0009142 103.1670 254.9797 15.73629858605166 CXO 1 25867U 99040B 09161.20833333 +.00000164 +00000-0 +10000-3 0 03362 2 25867 065.4122 069.4210 7515718 275.9183 359.0087 00.37805990004985 ____________________________________________________________________ These 2-Line ...Continue Reading

[list_settings.list_name] Current TLEs

June 11th 2009 PST

HST 1 20580U 90037B 09160.06658467 +.00000323 +00000-0 +11921-4 0 04050 2 20580 028.4688 155.2994 0003513 195.7953 164.2587 15.00807884848632 ISS (ZARYA) 1 25544U 98067A 09161.51089941 .00015706 00000-0 11388-3 0 112 2 25544 051.6406 341.1646 0009228 098.8703 312.6668 15.73580432604904 CXO 1 25867U 99040B 09161.20833333 +.00000164 +00000-0 +10000-3 0 03362 2 25867 065.4122 069.4210 7515718 275.9183 359.0087 00.37805990004985 ____________________________________________________________________ These 2-Line ...Continue Reading

[list_settings.list_name] Current TLEs

June 10th 2009 PST

HST 1 20580U 90037B 09157.14058997 +.00000282 +00000-0 +87905-5 0 04046 2 20580 028.4691 174.3963 0003622 167.2659 192.8159 15.00806741848196 ISS (ZARYA) 1 25544U 98067A 09161.07441093 .00015952 00000-0 11566-3 0 91 2 25544 051.6405 343.4053 0009185 096.5278 000.6965 15.73567353604837 CXO 1 25867U 99040B 09161.20833333 +.00000164 +00000-0 +10000-3 0 03362 2 25867 065.4122 069.4210 7515718 275.9183 359.0087 00.37805990004985 ____________________________________________________________________ These 2-Line ...Continue Reading

[list_settings.list_name] Current TLEs

June 9th 2009 PST

HST 1 20580U 90037B 09157.14058997 +.00000282 +00000-0 +87905-5 0 04046 2 20580 028.4691 174.3963 0003622 167.2659 192.8159 15.00806741848196 ISS (ZARYA) 1 25544U 98067A 09160.12255947 .00017740 00000-0 12823-3 0 24 2 25544 051.6405 348.2892 0009223 092.2562 009.3141 15.73542580604683 CXO 1 25867U 99040B 09158.58333333 +.00000084 +00000-0 +10000-3 0 03354 2 25867 065.4033 069.5061 7510633 275.9189 001.6723 00.37806249004972 ____________________________________________________________________ These 2-Line ...Continue Reading

[list_settings.list_name] Current TLEs

June 8th 2009 PST

HST 1 20580U 90037B 09157.14058997 +.00000282 +00000-0 +87905-5 0 04046 2 20580 028.4691 174.3963 0003622 167.2659 192.8159 15.00806741848196 ISS (ZARYA) 1 25544U 98067A 09159.10546493 .00019597 00000-0 14133-3 0 9969 2 25544 051.6407 353.5089 0009306 089.3199 006.8652 15.73512512604521 CXO 1 25867U 99040B 09158.58333333 +.00000084 +00000-0 +10000-3 0 03354 2 25867 065.4033 069.5061 7510633 275.9189 001.6723 00.37806249004972 ____________________________________________________________________ These 2-Line ...Continue Reading

[list_settings.list_name] Current TLEs

June 7th 2009 PST

HST 1 20580U 90037B 09154.14808949 +.00000254 +00000-0 +66516-5 0 04036 2 20580 028.4700 193.9309 0003605 133.1182 226.9657 15.00806014847747 ISS (ZARYA) 1 25544U 98067A 09158.15364743 .00018735 00000-0 13555-3 0 9891 2 25544 051.6413 358.3932 0009400 087.1327 013.7766 15.73472117604374 CXO 1 25867U 99040B 09155.91666667 +.00000115 +00000-0 +10000-3 0 03341 2 25867 065.3942 069.5883 7503488 275.9316 358.6506 00.37806631004962 ____________________________________________________________________ These 2-Line ...Continue Reading
  • This mailing list is a public mailing list - anyone may join or leave, at any time.
  • This mailing list is announce-only.

International Space Station (ISS) / Hubble Space Telescope (HST) / Chandra X-Ray Observatory Orbital Data via EMAIL

Privacy Policy:

Private list